STARLINK-30402, 57827

Orbit data source: Space-Track

STARLINK-30402, 57827 is a payload satellite owned by SpaceX/Seattle (US) in LEO that was launched on Sat, 09 Sep 2023 UTC via an FALCON 9 launch vehicle from the Air Force Eastern Test Range (AFETR). Payload-class satellites include a variety of spacecraft equipped with specific instruments for various scientific and technological missions. These include communications satellites like Starlink; space stations such as the ISS; scientific satellites like the Hubble; Earth observation satellites from companies like Planet Labs, Umbra, and HawkEye 360; GPS; miniature CubeSats for education and research; and military/defense satellites.

Loading next visibility...
Identifier
57827, 2023-138V
Orbit
LEO
Country
Flag of USUS
Related business
Manufacturer
SpaceX/Seattle
Mission
Operational Commercial Communications
Bus & Motor
STARLINK V2M, Unknown motor
Mass
730 kg wet, ~700 kg dry
Launch date (UTC)
2023-09-09 (3 years ago)
Launch vehicle
FALCON 9
Launch site
Air Force Eastern Test Range (AFETR)
Object type
Payload
Rocket body
Debris
Shape & HBR
Box + 2 Pan, 17.7 m
Radar Cross Section
33.884 m², Large (>1 m²)

Expand to show TLE details & history
Last TLE update: 2 days ago

TLE from 2 days ago
0 STARLINK-30402
1 57827U 23138V   26170.98319736  .00000744  00000-0  36550-4 0  9996
2 57827  43.0029  16.4097 0001289 268.1875  91.8829 15.27580660154370
Epoch: 2026-06-19T23:35Z
TLE epoch observation values (Epoch: 2026-06-19T23:35:48.251Z)
Latitude
-0.00004°
Longitude
114.25426°
Altitude
482.852 km
Speed
7.626 km/s
True Right ascension
01h 05m 38s
True Declination
0° 00' 00"
Sunlit
Object was in daylight at epoch
Visualization orbit readout
Latitude
Unknown
Longitude
Unknown
Altitude
Unknown
Speed
Unknown
Apparent Right ascension
Unknown
Apparent Declination
Unknown
Sunlit
N/A
Visualization observer readout
Local Sidereal Time
21:33:44
Azimuth
Unknown
Elevation
Unknown
Doppler factor
Unknown
Orbital elements
Apogee altitude
485.876 km
Perigee altitude
484.107 km
Semi-major axis
6,863.129 km
Eccentricity
0.00013
Inclination
43.0029°
RAAN
16.4097°
Arg. of periapsis
268.1875°
True anomaly
91.89766°
Mean anomaly
91.8829°
Eccentric anomaly
91.89028°
Mean motion
3.81733 °/min
Orbital period
94.31 mins
BSTAR
0.00003655
Loading maneuver chart data...
Computing Atmospheric mass density...
Loading historical data...
Loading historical data...
Loading historical data...
Loading historical data...
Loading historical data...
Loading historical data...
Loading historical data...

Documentation

Showing up to 5 results
|